QPF
0.01 0.00 0.00 0.00 0.00 0.00 0.00 0.00 0.00 0.00 0.00 0.00 0.00 0.00 0.00 0.00 0.00 0.00 0.00 0.00 0.00 0.00 0.00 0.01 0.01 0.01 0.01 0.01 0.01 0.01 0.01 0.01 0.01 0.01 0.01 0.01 0.01 0.01 0.01 0.01 0.01 0.01 0.01 0.01 0.01 0.00 0.00 0.00 0.00
0.01 0.00 0.00 0.00 0.00 0.00 0.00 0.00 0.00 0.00 0.00 0.00 0.00 0.00 0.00 0.00 0.00 0.00 0.00 0.00 0.00 0.00 0.00 0.00 0.01 0.02 0.02 0.01 0.01 0.01 0.01 0.01 0.01 0.00 0.01 0.01 0.01 0.01 0.01 0.01 0.01 0.01 0.01 0.00 0.00 0.00 0.00 0.00 0.00
0.01 0.01 0.00 0.00 0.00 0.00 0.00 0.00 0.00 0.00 0.00 0.00 0.00 0.00 0.00 0.00 0.00 0.00 0.00 0.00 0.00 0.00 0.00 0.00 0.02 0.02 0.02 0.02 0.01 0.01 0.01 0.01 0.00 0.00 0.01 0.01 0.01 0.01 0.01 0.01 0.01 0.01 0.00 0.00 0.00 0.00 0.00 0.00 0.00
0.01 0.01 0.00 0.00 0.00 0.00 0.00 0.00 0.00 0.00 0.00 0.00 0.00 0.00 0.00 0.00 0.00 0.00 0.00 0.00 0.00 0.00 0.00 0.01 0.02 0.02 0.02 0.02 0.01 0.01 0.01 0.01 0.00 0.00 0.01 0.01 0.01 0.01 0.01 0.01 0.01 0.00 0.00 0.00 0.00 0.00 0.00 0.00 0.00
0.01 0.01 0.00 0.00 0.00 0.00 0.00 0.00 0.00 0.00 0.00 0.00 0.00 0.00 0.00 0.00 0.00 0.00 0.00 0.00 0.00 0.00 0.00 0.01 0.01 0.02 0.02 0.02 0.02 0.01 0.01 0.00 0.00 0.00 0.01 0.01 0.01 0.01 0.01 0.00 0.00 0.00 0.00 0.00 0.00 0.00 0.00 0.00 0.00
0.01 0.01 0.00 0.00 0.00 0.00 0.00 0.00 0.00 0.00 0.00 0.00 0.00 0.00 0.00 0.00 0.00 0.00 0.00 0.00 0.00 0.00 0.00 0.01 0.02 0.02 0.02 0.02 0.01 0.01 0.00 0.00 0.01 0.01 0.01 0.01 0.01 0.01 0.00 0.00 0.00 0.00 0.00 0.00 0.00 0.00 0.00 0.00 0.00
0.01 0.01 0.00 0.00 0.00 0.00 0.00 0.00 0.00 0.00 0.00 0.00 0.00 0.00 0.00 0.00 0.00 0.00 0.00 0.00 0.00 0.00 0.00 0.01 0.01 0.02 0.02 0.02 0.02 0.01 0.00 0.00 0.01 0.01 0.01 0.01 0.01 0.01 0.00 0.00 0.00 0.00 0.00 0.00 0.00 0.00 0.00 0.00 0.00
0.01 0.01 0.01 0.00 0.00 0.00 0.00 0.00 0.00 0.00 0.00 0.00 0.00 0.00 0.00 0.00 0.00 0.00 0.00 0.00 0.00 0.00 0.00 0.01 0.01 0.01 0.01 0.01 0.01 0.01 0.01 0.01 0.01 0.01 0.01 0.01 0.01 0.00 0.00 0.00 0.00 0.00 0.00 0.00 0.00 0.00 0.00 0.00 0.00
0.03 0.03 0.01 0.00 0.00 0.00 0.00 0.00 0.00 0.00 0.00 0.00 0.00 0.00 0.00 0.00 0.00 0.00 0.00 0.00 0.00 0.01 0.01 0.01 0.01 0.01 0.01 0.01 0.01 0.00 0.01 0.01 0.01 0.01 0.00 0.00 0.00 0.00 0.00 0.00 0.00 0.00 0.00 0.00 0.00 0.00 0.00 0.00 0.00
0.05 0.03 0.01 0.00 0.00 0.00 0.00 0.00 0.00 0.00 0.00 0.00 0.00 0.00 0.00 0.00 0.00 0.00 0.00 0.00 0.00 0.01 0.01 0.01 0.01 0.00 0.01 0.00 0.00 0.00 0.00 0.01 0.00 0.00 0.00 0.00 0.00 0.00 0.00 0.00 0.00 0.00 0.00 0.00 0.00 0.00 0.00 0.00 0.00
0.03 0.03 0.01 0.01 0.01 0.01 0.01 0.00 0.00 0.00 0.00 0.00 0.00 0.00 0.00 0.00 0.00 0.00 0.00 0.00 0.00 0.00 0.00 0.00 0.00 0.00 0.00 0.00 0.00 0.00 0.00 0.01 0.00 0.00 0.00 0.00 0.00 0.00 0.00 0.00 0.00 0.00 0.00 0.00 0.00 0.00 0.00 0.00 0.00
0.02 0.02 0.02 0.01 0.01 0.02 0.02 0.01 0.00 0.00 0.00 0.00 0.00 0.00 0.00 0.00 0.00 0.00 0.00 0.00 0.00 0.00 0.00 0.00 0.00 0.00 0.00 0.00 0.00 0.00 0.00 0.00 0.00 0.00 0.00 0.00 0.00 0.00 0.00 0.00 0.00 0.00 0.00 0.00 0.00 0.00 0.00 0.00 0.00
0.02 0.01 0.02 0.02 0.01 0.01 0.01 0.01 0.01 0.00 0.00 0.00 0.00 0.00 0.00 0.00 0.00 0.00 0.00 0.00 0.00 0.00 0.00 0.00 0.00 0.00 0.00 0.00 0.00 0.00 0.00 0.00 0.00 0.00 0.00 0.00 0.00 0.00 0.00 0.00 0.00 0.00 0.00 0.00 0.00 0.00 0.00 0.00 0.00
0.03 0.02 0.01 0.02 0.03 0.01 0.01 0.01 0.01 0.00 0.00 0.00 0.00 0.00 0.00 0.00 0.00 0.00 0.00 0.00 0.00 0.00 0.00 0.00 0.00 0.00 0.00 0.00 0.00 0.00 0.00 0.00 0.00 0.00 0.00 0.00 0.00 0.00 0.00 0.00 0.00 0.00 0.00 0.00 0.00 0.00 0.00 0.00 0.00
0.04 0.04 0.02 0.01 0.02 0.02 0.02 0.01 0.01 0.00 0.00 0.00 0.00 0.00 0.00 0.00 0.00 0.00 0.00 0.00 0.00 0.00 0.00 0.00 0.00 0.00 0.00 0.00 0.00 0.00 0.00 0.00 0.00 0.00 0.00 0.00 0.00 0.00 0.00 0.00 0.00 0.00 0.00 0.00 0.00 0.00 0.00 0.00 0.00
0.07 0.08 0.06 0.02 0.01 0.02 0.04 0.03 0.00 0.00 0.00 0.00 0.00 0.00 0.00 0.00 0.00 0.00 0.00 0.00 0.00 0.00 0.00 0.00 0.00 0.00 0.00 0.00 0.00 0.00 0.00 0.00 0.00 0.00 0.00 0.00 0.00 0.00 0.00 0.00 0.00 0.00 0.00 0.00 0.00 0.00 0.00 0.00 0.00
0.10 0.10 0.05 0.02 0.01 0.02 0.04 0.03 0.00 0.00 0.00 0.00 0.00 0.00 0.00 0.00 0.01 0.00 0.00 0.00 0.00 0.00 0.00 0.00 0.00 0.00 0.00 0.00 0.00 0.00 0.00 0.00 0.00 0.00 0.00 0.00 0.00 0.00 0.00 0.00 0.00 0.00 0.00 0.00 0.00 0.00 0.00 0.00 0.00
0.08 0.05 0.03 0.02 0.01 0.01 0.02 0.02 0.00 0.00 0.00 0.00 0.00 0.00 0.00 0.00 0.00 0.01 0.01 0.00 0.00 0.00 0.00 0.00 0.00 0.00 0.00 0.00 0.00 0.00 0.00 0.00 0.00 0.00 0.00 0.00 0.00 0.00 0.00 0.00 0.00 0.00 0.00 0.00 0.00 0.00 0.00 0.00 0.00
0.04 0.04 0.04 0.02 0.03 0.02 0.02 0.01 0.00 0.00 0.01 0.01 0.00 0.00 0.00 0.00 0.00 0.01 0.01 0.01 0.00 0.00 0.00 0.00 0.00 0.00 0.00 0.00 0.00 0.00 0.00 0.00 0.00 0.00 0.00 0.00 0.00 0.00 0.00 0.00 0.00 0.00 0.00 0.00 0.00 0.00 0.00 0.00 0.00
0.08 0.08 0.06 0.04 0.04 0.04 0.03 0.01 0.00 0.00 0.01 0.01 0.01 0.00 0.00 0.00 0.00 0.01 0.01 0.01 0.00 0.00 0.00 0.00 0.00 0.00 0.00 0.00 0.00 0.00 0.00 0.00 0.00 0.00 0.00 0.00 0.00 0.00 0.00 0.00 0.00 0.00 0.00 0.00 0.00 0.00 0.00 0.00 0.00
0.09 0.07 0.05 0.04 0.05 0.05 0.05 0.04 0.01 0.00 0.00 0.01 0.01 0.00 0.00 0.00 0.00 0.01 0.01 0.01 0.01 0.00 0.00 0.00 0.00 0.00 0.00 0.00 0.00 0.00 0.00 0.00 0.00 0.00 0.00 0.00 0.00 0.00 0.00 0.00 0.00 0.00 0.00 0.00 0.00 0.00 0.00 0.00 0.00
0.07 0.04 0.04 0.04 0.08 0.10 0.08 0.07 0.02 0.00 0.00 0.01 0.00 0.00 0.00 0.00 0.00 0.00 0.01 0.01 0.01 0.00 0.00 0.00 0.00 0.00 0.00 0.00 0.00 0.00 0.00 0.00 0.00 0.00 0.00 0.00 0.00 0.00 0.00 0.00 0.00 0.00 0.00 0.00 0.00 0.00 0.00 0.00 0.01
0.05 0.04 0.05 0.07 0.10 0.12 0.10 0.09 0.03 0.01 0.01 0.01 0.00 0.00 0.00 0.00 0.00 0.00 0.00 0.00 0.00 0.00 0.00 0.00 0.00 0.00 0.00 0.00 0.00 0.00 0.00 0.00 0.00 0.00 0.00 0.00 0.00 0.00 0.00 0.00 0.00 0.00 0.00 0.00 0.00 0.00 0.00 0.00 0.00
0.04 0.05 0.07 0.09 0.14 0.16 0.07 0.06 0.03 0.01 0.01 0.01 0.01 0.01 0.01 0.00 0.00 0.00 0.00 0.00 0.00 0.01 0.01 0.01 0.00 0.00 0.00 0.00 0.00 0.00 0.00 0.00 0.00 0.00 0.00 0.00 0.00 0.00 0.00 0.00 0.00 0.00 0.00 0.00 0.00 0.00 0.00 0.00 0.00
0.09 0.13 0.17 0.17 0.18 0.11 0.02 0.02 0.01 0.00 0.00 0.00 0.01 0.02 0.01 0.00 0.00 0.00 0.00 0.00 0.00 0.00 0.01 0.01 0.00 0.00 0.00 0.00 0.00 0.00 0.00 0.00 0.00 0.00 0.00 0.00 0.00 0.00 0.00 0.00 0.00 0.00 0.00 0.00 0.00 0.00 0.00 0.00 0.00
0.08 0.12 0.16 0.14 0.08 0.03 0.02 0.01 0.00 0.00 0.00 0.00 0.00 0.00 0.01 0.00 0.00 0.00 0.00 0.00 0.00 0.00 0.00 0.01 0.00 0.00 0.00 0.00 0.00 0.00 0.00 0.00 0.00 0.00 0.00 0.00 0.00 0.00 0.00 0.00 0.00 0.00 0.00 0.00 0.00 0.00 0.00 0.00 0.00
0.07 0.08 0.07 0.09 0.07 0.05 0.03 0.01 0.00 0.00 0.00 0.00 0.00 0.00 0.00 0.00 0.00 0.00 0.00 0.00 0.00 0.00 0.00 0.00 0.00 0.00 0.00 0.00 0.00 0.00 0.00 0.00 0.00 0.00 0.00 0.00 0.00 0.00 0.00 0.00 0.00 0.00 0.00 0.00 0.00 0.00 0.00 0.00 0.00
0.06 0.08 0.11 0.14 0.09 0.04 0.02 0.00 0.00 0.00 0.00 0.00 0.00 0.00 0.00 0.00 0.00 0.00 0.00 0.00 0.00 0.00 0.00 0.00 0.01 0.01 0.01 0.00 0.00 0.00 0.00 0.00 0.00 0.00 0.00 0.00 0.00 0.00 0.00 0.00 0.00 0.00 0.00 0.00 0.00 0.00 0.00 0.00 0.00
0.05 0.11 0.14 0.15 0.10 0.06 0.02 0.01 0.00 0.00 0.00 0.00 0.01 0.00 0.00 0.00 0.00 0.00 0.00 0.00 0.00 0.00 0.00 0.00 0.00 0.01 0.01 0.01 0.00 0.00 0.00 0.00 0.00 0.00 0.00 0.00 0.00 0.00 0.00 0.00 0.00 0.00 0.00 0.00 0.00 0.00 0.00 0.00 0.00
0.04 0.07 0.11 0.13 0.10 0.06 0.03 0.01 0.00 0.00 0.00 0.01 0.01 0.01 0.00 0.00 0.00 0.00 0.00 0.00 0.00 0.00 0.00 0.00 0.00 0.00 0.00 0.01 0.01 0.01 0.01 0.01 0.01 0.01 0.01 0.01 0.01 0.01 0.00 0.00 0.00 0.00 0.00 0.00 0.00 0.00 0.00 0.00 0.01
MSLP
1011.37 1012.38 1013.51 1014.59 1015.45 1015.98 1016.11 1015.87 1015.36 1014.72 1014.11 1013.65 1013.42 1013.42 1013.59 1013.83 1014.05 1014.15 1014.11 1013.95 1013.74 1013.57 1013.51 1013.64 1013.95 1014.42 1014.96 1015.51 1015.98 1016.35 1016.59 1016.75 1016.87 1016.99 1017.15 1017.37 1017.63 1017.89 1018.13 1018.30 1018.40 1018.43 1018.43 1018.42 1018.42 1018.45 1018.52 1018.59 1018.66
1011.74 1012.86 1014.04 1015.10 1015.86 1016.22 1016.15 1015.69 1014.96 1014.14 1013.38 1012.83 1012.55 1012.52 1012.70 1012.98 1013.25 1013.42 1013.47 1013.42 1013.32 1013.27 1013.34 1013.57 1013.98 1014.51 1015.10 1015.67 1016.16 1016.53 1016.78 1016.95 1017.08 1017.22 1017.41 1017.64 1017.90 1018.17 1018.39 1018.54 1018.62 1018.64 1018.63 1018.61 1018.62 1018.66 1018.74 1018.84 1018.92
1012.20 1013.38 1014.55 1015.51 1016.13 1016.31 1016.04 1015.39 1014.51 1013.56 1012.72 1012.13 1011.83 1011.82 1012.02 1012.34 1012.65 1012.88 1013.01 1013.04 1013.05 1013.10 1013.27 1013.60 1014.07 1014.66 1015.27 1015.85 1016.33 1016.69 1016.93 1017.10 1017.24 1017.39 1017.59 1017.83 1018.10 1018.35 1018.56 1018.70 1018.76 1018.77 1018.75 1018.74 1018.75 1018.81 1018.91 1019.03 1019.15
1012.68 1013.86 1014.95 1015.79 1016.24 1016.24 1015.80 1015.01 1014.03 1013.04 1012.20 1011.63 1011.37 1011.40 1011.64 1011.98 1012.33 1012.60 1012.77 1012.87 1012.95 1013.09 1013.33 1013.72 1014.24 1014.84 1015.45 1016.01 1016.47 1016.80 1017.03 1017.19 1017.34 1017.50 1017.71 1017.96 1018.23 1018.48 1018.67 1018.80 1018.85 1018.85 1018.83 1018.83 1018.86 1018.94 1019.07 1019.21 1019.36
1013.10 1014.22 1015.20 1015.87 1016.15 1015.98 1015.42 1014.56 1013.57 1012.62 1011.85 1011.36 1011.18 1011.28 1011.56 1011.94 1012.30 1012.59 1012.78 1012.91 1013.04 1013.23 1013.52 1013.93 1014.47 1015.05 1015.64 1016.16 1016.57 1016.88 1017.09 1017.24 1017.39 1017.57 1017.80 1018.06 1018.33 1018.58 1018.77 1018.89 1018.94 1018.94 1018.93 1018.94 1018.99 1019.10 1019.24 1019.41 1019.59
1013.39 1014.41 1015.23 1015.73 1015.84 1015.55 1014.92 1014.06 1013.13 1012.28 1011.64 1011.29 1011.23 1011.40 1011.74 1012.13 1012.49 1012.77 1012.97 1013.11 1013.26 1013.47 1013.78 1014.20 1014.72 1015.27 1015.81 1016.28 1016.66 1016.93 1017.12 1017.28 1017.44 1017.65 1017.89 1018.18 1018.46 1018.72 1018.91 1019.03 1019.08 1019.10 1019.10 1019.12 1019.19 1019.31 1019.48 1019.66 1019.85
1013.51 1014.39 1015.04 1015.37 1015.34 1014.96 1014.31 1013.51 1012.69 1012.00 1011.54 1011.34 1011.41 1011.66 1012.04 1012.44 1012.78 1013.04 1013.22 1013.36 1013.52 1013.73 1014.05 1014.47 1014.96 1015.48 1015.98 1016.40 1016.74 1016.99 1017.18 1017.35 1017.54 1017.77 1018.05 1018.36 1018.66 1018.93 1019.13 1019.25 1019.31 1019.33 1019.35 1019.39 1019.47 1019.60 1019.78 1019.97 1020.15
1013.45 1014.18 1014.66 1014.84 1014.70 1014.27 1013.64 1012.93 1012.26 1011.75 1011.47 1011.43 1011.60 1011.93 1012.32 1012.71 1013.03 1013.27 1013.43 1013.56 1013.72 1013.95 1014.27 1014.68 1015.16 1015.65 1016.11 1016.51 1016.82 1017.07 1017.27 1017.47 1017.70 1017.97 1018.28 1018.62 1018.94 1019.21 1019.41 1019.54 1019.61 1019.64 1019.66 1019.71 1019.81 1019.95 1020.12 1020.31 1020.48
1013.25 1013.83 1014.16 1014.21 1013.99 1013.54 1012.96 1012.37 1011.85 1011.51 1011.38 1011.46 1011.72 1012.08 1012.48 1012.84 1013.13 1013.34 1013.49 1013.63 1013.80 1014.05 1014.39 1014.81 1015.28 1015.76 1016.21 1016.60 1016.91 1017.17 1017.41 1017.65 1017.92 1018.23 1018.57 1018.93 1019.26 1019.53 1019.74 1019.87 1019.94 1019.97 1020.01 1020.07 1020.17 1020.31 1020.48 1020.65 1020.81
1012.97 1013.42 1013.62 1013.58 1013.30 1012.86 1012.35 1011.86 1011.47 1011.27 1011.25 1011.42 1011.72 1012.08 1012.45 1012.78 1013.03 1013.21 1013.36 1013.52 1013.72 1014.00 1014.38 1014.82 1015.31 1015.80 1016.25 1016.65 1016.98 1017.28 1017.55 1017.84 1018.15 1018.50 1018.87 1019.24 1019.57 1019.84 1020.04 1020.17 1020.24 1020.28 1020.33 1020.40 1020.51 1020.65 1020.81 1020.97 1021.11
1012.67 1013.01 1013.12 1013.01 1012.71 1012.30 1011.86 1011.46 1011.18 1011.06 1011.11 1011.31 1011.60 1011.93 1012.25 1012.52 1012.74 1012.90 1013.06 1013.25 1013.49 1013.82 1014.24 1014.71 1015.23 1015.73 1016.21 1016.63 1017.00 1017.34 1017.66 1017.99 1018.35 1018.72 1019.11 1019.48 1019.81 1020.07 1020.27 1020.39 1020.47 1020.52 1020.58 1020.67 1020.78 1020.93 1021.08 1021.23 1021.35
1012.38 1012.65 1012.70 1012.56 1012.27 1011.90 1011.53 1011.21 1011.00 1010.93 1011.00 1011.17 1011.42 1011.68 1011.93 1012.15 1012.33 1012.49 1012.66 1012.88 1013.17 1013.54 1013.99 1014.51 1015.04 1015.57 1016.07 1016.53 1016.93 1017.31 1017.68 1018.05 1018.44 1018.83 1019.23 1019.59 1019.92 1020.18 1020.37 1020.50 1020.59 1020.67 1020.75 1020.85 1020.98 1021.13 1021.29 1021.43 1021.53
1012.14 1012.35 1012.37 1012.24 1011.99 1011.68 1011.37 1011.11 1010.95 1010.89 1010.94 1011.06 1011.24 1011.42 1011.60 1011.75 1011.90 1012.05 1012.23 1012.48 1012.80 1013.21 1013.69 1014.22 1014.77 1015.32 1015.84 1016.31 1016.76 1017.17 1017.58 1017.98 1018.39 1018.79 1019.18 1019.55 1019.86 1020.12 1020.33 1020.48 1020.60 1020.71 1020.83 1020.96 1021.12 1021.28 1021.44 1021.57 1021.67
1011.93 1012.10 1012.13 1012.02 1011.83 1011.59 1011.35 1011.15 1011.01 1010.95 1010.96 1011.02 1011.11 1011.21 1011.32 1011.42 1011.53 1011.68 1011.87 1012.13 1012.46 1012.88 1013.36 1013.88 1014.43 1014.98 1015.50 1016.00 1016.46 1016.91 1017.34 1017.76 1018.18 1018.59 1018.98 1019.34 1019.65 1019.92 1020.15 1020.34 1020.51 1020.67 1020.84 1021.01 1021.20 1021.38 1021.55 1021.68 1021.77
1011.74 1011.89 1011.93 1011.88 1011.75 1011.59 1011.42 1011.27 1011.15 1011.08 1011.04 1011.03 1011.05 1011.08 1011.12 1011.18 1011.27 1011.40 1011.58 1011.84 1012.17 1012.56 1013.02 1013.52 1014.04 1014.57 1015.09 1015.59 1016.08 1016.54 1016.99 1017.43 1017.85 1018.26 1018.64 1019.00 1019.32 1019.61 1019.87 1020.11 1020.34 1020.57 1020.80 1021.03 1021.25 1021.46 1021.64 1021.77 1021.87
1011.56 1011.71 1011.77 1011.77 1011.72 1011.64 1011.53 1011.43 1011.32 1011.23 1011.14 1011.07 1011.02 1010.99 1010.98 1011.01 1011.07 1011.19 1011.36 1011.60 1011.89 1012.25 1012.66 1013.11 1013.60 1014.10 1014.62 1015.12 1015.62 1016.11 1016.57 1017.01 1017.44 1017.83 1018.21 1018.56 1018.90 1019.22 1019.52 1019.83 1020.13 1020.42 1020.72 1021.01 1021.28 1021.52 1021.71 1021.87 1021.96
1011.41 1011.55 1011.65 1011.70 1011.72 1011.70 1011.65 1011.57 1011.46 1011.34 1011.20 1011.07 1010.96 1010.88 1010.83 1010.83 1010.88 1010.98 1011.13 1011.33 1011.58 1011.89 1012.25 1012.65 1013.10 1013.58 1014.09 1014.61 1015.12 1015.62 1016.10 1016.55 1016.97 1017.36 1017.73 1018.08 1018.42 1018.77 1019.12 1019.49 1019.86 1020.23 1020.60 1020.95 1021.26 1021.54 1021.77 1021.94 1022.06
1011.32 1011.46 1011.58 1011.69 1011.76 1011.79 1011.77 1011.68 1011.54 1011.36 1011.16 1010.96 1010.79 1010.65 1010.57 1010.55 1010.58 1010.66 1010.78 1010.95 1011.16 1011.42 1011.73 1012.09 1012.51 1012.98 1013.50 1014.04 1014.58 1015.11 1015.60 1016.06 1016.47 1016.85 1017.21 1017.55 1017.90 1018.27 1018.67 1019.09 1019.53 1019.97 1020.40 1020.81 1021.18 1021.50 1021.77 1021.97 1022.12
1011.32 1011.46 1011.61 1011.76 1011.86 1011.91 1011.87 1011.75 1011.54 1011.28 1010.98 1010.69 1010.44 1010.24 1010.12 1010.07 1010.08 1010.14 1010.25 1010.38 1010.56 1010.78 1011.06 1011.40 1011.81 1012.29 1012.83 1013.40 1013.98 1014.54 1015.06 1015.52 1015.93 1016.30 1016.64 1016.98 1017.34 1017.73 1018.15 1018.62 1019.11 1019.61 1020.10 1020.57 1020.99 1021.36 1021.67 1021.92 1022.11
1011.43 1011.58 1011.76 1011.93 1012.05 1012.07 1011.98 1011.78 1011.46 1011.07 1010.64 1010.23 1009.88 1009.61 1009.43 1009.34 1009.33 1009.38 1009.47 1009.59 1009.74 1009.94 1010.21 1010.54 1010.97 1011.48 1012.05 1012.67 1013.29 1013.89 1014.43 1014.91 1015.32 1015.68 1016.02 1016.35 1016.71 1017.11 1017.56 1018.06 1018.59 1019.14 1019.68 1020.19 1020.65 1021.07 1021.43 1021.73 1021.98
1011.62 1011.81 1012.02 1012.20 1012.29 1012.27 1012.09 1011.76 1011.30 1010.74 1010.16 1009.60 1009.12 1008.75 1008.51 1008.37 1008.34 1008.37 1008.45 1008.56 1008.71 1008.91 1009.18 1009.54 1009.99 1010.53 1011.15 1011.81 1012.48 1013.11 1013.69 1014.18 1014.60 1014.96 1015.30 1015.63 1015.99 1016.41 1016.88 1017.41 1017.97 1018.54 1019.11 1019.65 1020.15 1020.61 1021.02 1021.38 1021.69
1011.86 1012.08 1012.32 1012.50 1012.56 1012.46 1012.17 1011.68 1011.05 1010.31 1009.55 1008.83 1008.22 1007.74 1007.42 1007.24 1007.17 1007.19 1007.26 1007.38 1007.53 1007.74 1008.02 1008.40 1008.88 1009.45 1010.11 1010.81 1011.51 1012.18 1012.78 1013.30 1013.74 1014.11 1014.46 1014.81 1015.19 1015.63 1016.12 1016.67 1017.25 1017.84 1018.42 1018.98 1019.50 1019.99 1020.43 1020.84 1021.21
1012.07 1012.32 1012.57 1012.74 1012.76 1012.57 1012.15 1011.52 1010.71 1009.79 1008.86 1007.99 1007.25 1006.67 1006.28 1006.05 1005.95 1005.95 1006.02 1006.13 1006.29 1006.51 1006.80 1007.19 1007.68 1008.28 1008.96 1009.68 1010.40 1011.09 1011.72 1012.26 1012.73 1013.13 1013.51 1013.90 1014.32 1014.79 1015.31 1015.88 1016.47 1017.07 1017.65 1018.21 1018.73 1019.23 1019.69 1020.13 1020.54
1012.17 1012.45 1012.70 1012.85 1012.81 1012.54 1012.00 1011.23 1010.27 1009.21 1008.14 1007.15 1006.31 1005.66 1005.20 1004.93 1004.80 1004.79 1004.84 1004.95 1005.10 1005.31 1005.59 1005.98 1006.47 1007.06 1007.73 1008.45 1009.18 1009.88 1010.53 1011.10 1011.60 1012.06 1012.49 1012.93 1013.40 1013.92 1014.48 1015.07 1015.67 1016.27 1016.84 1017.38 1017.89 1018.37 1018.83 1019.28 1019.72
1012.14 1012.42 1012.65 1012.76 1012.66 1012.30 1011.68 1010.81 1009.75 1008.59 1007.44 1006.38 1005.48 1004.78 1004.29 1003.99 1003.84 1003.80 1003.83 1003.91 1004.04 1004.22 1004.48 1004.83 1005.29 1005.85 1006.49 1007.19 1007.90 1008.60 1009.26 1009.86 1010.41 1010.92 1011.42 1011.93 1012.47 1013.05 1013.66 1014.27 1014.89 1015.48 1016.03 1016.54 1017.01 1017.46 1017.90 1018.34 1018.77
1012.00 1012.23 1012.42 1012.46 1012.30 1011.87 1011.19 1010.26 1009.16 1007.97 1006.81 1005.74 1004.83 1004.13 1003.63 1003.31 1003.13 1003.06 1003.05 1003.09 1003.17 1003.30 1003.50 1003.80 1004.20 1004.70 1005.29 1005.95 1006.63 1007.32 1007.98 1008.61 1009.21 1009.79 1010.37 1010.96 1011.57 1012.21 1012.86 1013.51 1014.13 1014.71 1015.24 1015.71 1016.14 1016.55 1016.95 1017.36 1017.78
1011.81 1011.96 1012.06 1012.02 1011.78 1011.30 1010.57 1009.64 1008.55 1007.40 1006.28 1005.26 1004.40 1003.73 1003.24 1002.92 1002.72 1002.60 1002.53 1002.51 1002.51 1002.57 1002.69 1002.91 1003.24 1003.67 1004.20 1004.80 1005.45 1006.11 1006.78 1007.43 1008.07 1008.71 1009.36 1010.02 1010.71 1011.41 1012.10 1012.77 1013.40 1013.97 1014.48 1014.92 1015.31 1015.67 1016.03 1016.41 1016.80
1011.69 1011.72 1011.69 1011.54 1011.21 1010.67 1009.92 1009.00 1007.98 1006.91 1005.89 1004.97 1004.20 1003.59 1003.13 1002.80 1002.57 1002.39 1002.25 1002.13 1002.04 1002.01 1002.04 1002.17 1002.42 1002.78 1003.24 1003.79 1004.40 1005.04 1005.70 1006.37 1007.05 1007.73 1008.44 1009.15 1009.89 1010.63 1011.36 1012.05 1012.68 1013.25 1013.74 1014.16 1014.53 1014.86 1015.19 1015.53 1015.90
1011.74 1011.61 1011.43 1011.13 1010.68 1010.08 1009.32 1008.44 1007.49 1006.55 1005.66 1004.86 1004.20 1003.66 1003.23 1002.90 1002.62 1002.37 1002.14 1001.92 1001.73 1001.59 1001.53 1001.58 1001.75 1002.04 1002.44 1002.94 1003.52 1004.14 1004.79 1005.47 1006.16 1006.87 1007.60 1008.35 1009.11 1009.87 1010.61 1011.31 1011.95 1012.52 1013.01 1013.43 1013.80 1014.13 1014.45 1014.78 1015.12
1012.01 1011.70 1011.33 1010.86 1010.28 1009.60 1008.81 1007.97 1007.12 1006.29 1005.54 1004.88 1004.33 1003.86 1003.47 1003.12 1002.79 1002.46 1002.12 1001.80 1001.50 1001.26 1001.12 1001.08 1001.19 1001.43 1001.79 1002.26 1002.80 1003.41 1004.05 1004.72 1005.42 1006.13 1006.86 1007.61 1008.36 1009.12 1009.86 1010.56 1011.20 1011.78 1012.29 1012.73 1013.12 1013.48 1013.82 1014.16 1014.51
Thickness
5713 5712 5711 5703 5686 5674 5680 5698 5711 5719 5726 5737 5741 5740 5739 5739 5738 5744 5762 5768 5769 5765 5762 5760 5757 5755 5752 5750 5748 5746 5744 5742 5741 5739 5737 5736 5734 5733 5732 5730 5729 5728 5726 5724 5723 5721 5719 5717 5716
5706 5705 5698 5686 5671 5666 5681 5700 5710 5721 5732 5736 5739 5742 5741 5744 5753 5755 5757 5762 5764 5762 5759 5757 5755 5752 5749 5747 5745 5743 5741 5739 5737 5736 5734 5733 5731 5730 5728 5727 5725 5724 5722 5720 5718 5716 5715 5713 5711
5699 5696 5683 5672 5667 5675 5691 5706 5712 5724 5729 5731 5734 5739 5742 5746 5752 5754 5758 5760 5759 5757 5756 5754 5751 5749 5746 5744 5741 5740 5738 5736 5734 5732 5731 5729 5728 5726 5725 5723 5721 5720 5718 5716 5714 5712 5710 5708 5706
5688 5679 5670 5664 5673 5689 5700 5710 5714 5717 5723 5728 5729 5731 5739 5749 5752 5754 5756 5756 5754 5752 5751 5750 5748 5745 5743 5740 5738 5736 5734 5733 5731 5729 5727 5726 5724 5722 5721 5719 5717 5715 5713 5711 5710 5708 5705 5703 5702
5675 5665 5657 5659 5676 5691 5699 5706 5711 5711 5716 5722 5724 5725 5733 5744 5749 5750 5751 5751 5750 5748 5746 5745 5744 5742 5740 5737 5735 5733 5731 5729 5727 5725 5724 5722 5720 5718 5716 5715 5713 5711 5709 5707 5705 5703 5701 5699 5697
5657 5653 5648 5660 5677 5689 5696 5703 5706 5708 5711 5715 5718 5720 5730 5738 5741 5743 5744 5744 5744 5743 5742 5740 5739 5738 5736 5734 5731 5729 5727 5726 5724 5722 5720 5718 5717 5714 5712 5711 5709 5707 5705 5703 5701 5700 5697 5695 5693
5647 5643 5648 5660 5670 5681 5694 5699 5699 5702 5705 5710 5716 5714 5724 5731 5735 5737 5737 5736 5736 5736 5736 5735 5735 5733 5732 5730 5728 5725 5724 5722 5720 5718 5716 5714 5713 5711 5709 5707 5705 5703 5701 5699 5697 5696 5693 5691 5689
5645 5639 5643 5653 5662 5677 5691 5695 5701 5700 5705 5713 5713 5711 5717 5727 5729 5729 5728 5728 5728 5729 5730 5730 5730 5729 5727 5726 5724 5722 5720 5718 5716 5714 5712 5710 5709 5707 5705 5703 5701 5699 5697 5695 5694 5692 5690 5687 5685
5636 5627 5640 5654 5660 5672 5684 5687 5695 5702 5702 5706 5710 5715 5723 5724 5723 5721 5720 5720 5721 5723 5724 5725 5725 5724 5723 5721 5719 5717 5716 5714 5712 5710 5708 5706 5704 5703 5701 5699 5697 5695 5693 5692 5690 5688 5685 5683 5680
5621 5624 5646 5657 5661 5667 5674 5679 5685 5689 5692 5698 5703 5708 5713 5716 5717 5717 5718 5718 5719 5720 5720 5721 5721 5720 5718 5717 5715 5713 5712 5710 5708 5706 5704 5702 5700 5698 5697 5695 5693 5691 5689 5688 5685 5683 5681 5678 5676
5615 5623 5640 5648 5655 5660 5664 5670 5677 5678 5681 5693 5698 5701 5703 5706 5710 5712 5715 5718 5720 5719 5718 5717 5717 5716 5715 5713 5711 5709 5708 5706 5704 5702 5700 5698 5696 5694 5692 5691 5689 5687 5685 5683 5681 5679 5676 5674 5671
5606 5618 5628 5637 5644 5648 5653 5660 5665 5672 5685 5696 5698 5699 5699 5701 5706 5710 5713 5714 5715 5715 5715 5714 5713 5712 5711 5709 5708 5706 5704 5702 5700 5698 5697 5694 5692 5690 5688 5687 5685 5683 5681 5679 5676 5674 5672 5669 5667
5597 5609 5618 5626 5632 5637 5643 5648 5655 5667 5682 5687 5690 5690 5693 5698 5704 5707 5709 5709 5709 5711 5712 5712 5710 5709 5707 5705 5704 5702 5700 5699 5697 5695 5693 5691 5689 5686 5684 5682 5681 5679 5677 5674 5672 5670 5667 5665 5662
5592 5598 5605 5613 5620 5627 5630 5640 5646 5666 5674 5676 5680 5684 5689 5695 5699 5700 5702 5704 5706 5709 5709 5709 5708 5706 5704 5702 5701 5699 5697 5695 5693 5692 5690 5688 5686 5684 5681 5679 5677 5675 5673 5670 5668 5666 5663 5660 5657
5581 5583 5591 5602 5609 5617 5620 5626 5644 5664 5663 5665 5671 5678 5684 5690 5694 5699 5703 5705 5707 5707 5707 5706 5705 5703 5701 5700 5698 5696 5694 5692 5690 5689 5687 5685 5684 5681 5678 5676 5673 5671 5669 5666 5664 5661 5658 5655 5653
5568 5569 5575 5596 5603 5609 5605 5617 5647 5654 5653 5657 5663 5669 5676 5684 5691 5697 5700 5702 5702 5702 5702 5703 5702 5701 5699 5697 5695 5693 5691 5689 5688 5686 5685 5683 5681 5679 5676 5673 5670 5668 5665 5663 5660 5656 5653 5650 5647
5553 5557 5567 5583 5596 5600 5598 5612 5637 5644 5646 5651 5656 5663 5670 5678 5685 5691 5695 5697 5698 5699 5699 5699 5699 5698 5696 5693 5691 5690 5688 5687 5686 5684 5682 5680 5678 5676 5673 5671 5668 5665 5662 5659 5656 5652 5649 5646 5642
5546 5551 5560 5569 5585 5588 5591 5605 5624 5633 5637 5644 5650 5657 5664 5672 5684 5690 5692 5694 5694 5694 5694 5694 5694 5693 5691 5689 5686 5685 5684 5684 5683 5682 5681 5679 5676 5674 5671 5668 5665 5662 5659 5655 5652 5648 5645 5641 5638
5542 5545 5550 5564 5575 5575 5583 5596 5611 5621 5625 5633 5641 5649 5657 5670 5682 5685 5688 5689 5689 5690 5690 5691 5691 5691 5689 5687 5686 5684 5683 5682 5680 5680 5679 5677 5675 5672 5669 5666 5663 5660 5656 5653 5649 5645 5641 5636 5633
5531 5534 5541 5554 5565 5568 5573 5586 5603 5614 5622 5631 5639 5646 5655 5665 5672 5678 5682 5684 5687 5689 5690 5690 5690 5690 5690 5690 5688 5686 5683 5680 5679 5677 5676 5675 5673 5671 5668 5665 5661 5658 5654 5649 5646 5642 5637 5632 5629
5524 5528 5535 5540 5551 5560 5562 5575 5594 5610 5618 5628 5638 5647 5654 5662 5669 5675 5678 5682 5685 5688 5690 5692 5691 5691 5690 5688 5684 5680 5676 5675 5674 5674 5674 5673 5672 5669 5667 5663 5660 5656 5652 5648 5643 5640 5635 5629 5623
5518 5530 5533 5536 5534 5540 5549 5555 5586 5601 5611 5623 5635 5643 5651 5660 5668 5673 5677 5680 5685 5690 5692 5691 5691 5690 5688 5685 5683 5681 5681 5680 5680 5677 5674 5672 5669 5667 5664 5662 5658 5654 5650 5646 5642 5638 5633 5628 5621
5516 5526 5527 5528 5526 5527 5539 5541 5573 5592 5605 5623 5635 5643 5651 5659 5665 5671 5676 5681 5686 5689 5689 5690 5689 5688 5687 5685 5684 5681 5681 5680 5677 5674 5671 5669 5666 5664 5662 5659 5656 5652 5648 5645 5640 5635 5631 5627 5621
5515 5515 5516 5516 5516 5519 5539 5536 5560 5583 5605 5622 5633 5641 5649 5656 5662 5668 5673 5676 5680 5683 5684 5685 5686 5686 5686 5685 5684 5682 5680 5677 5674 5672 5669 5667 5664 5662 5660 5657 5654 5651 5646 5642 5638 5633 5628 5624 5619
5505 5501 5501 5502 5505 5518 5540 5538 5562 5592 5607 5620 5629 5637 5646 5652 5656 5661 5665 5670 5674 5678 5680 5682 5683 5684 5685 5684 5683 5683 5681 5677 5675 5673 5670 5666 5663 5661 5659 5655 5652 5648 5645 5640 5635 5630 5626 5621 5616
5496 5497 5497 5500 5507 5517 5530 5539 5567 5591 5602 5611 5620 5629 5637 5644 5651 5656 5662 5667 5671 5675 5678 5680 5682 5683 5684 5684 5683 5682 5679 5676 5675 5672 5670 5668 5666 5663 5659 5654 5650 5646 5642 5637 5632 5627 5623 5618 5613
5488 5491 5497 5496 5499 5505 5521 5537 5558 5580 5591 5601 5610 5618 5625 5634 5642 5650 5656 5662 5667 5672 5676 5679 5681 5682 5683 5683 5682 5680 5678 5676 5675 5672 5669 5666 5664 5660 5656 5652 5647 5643 5639 5634 5629 5624 5620 5615 5609
5486 5488 5486 5487 5492 5502 5518 5529 5547 5569 5580 5591 5598 5606 5615 5624 5633 5641 5648 5655 5662 5668 5673 5676 5679 5681 5683 5682 5681 5680 5678 5676 5673 5669 5666 5664 5661 5658 5653 5649 5644 5639 5635 5630 5625 5621 5616 5611 5606
5475 5477 5480 5481 5484 5491 5505 5532 5553 5562 5571 5578 5587 5596 5604 5613 5621 5630 5638 5646 5653 5659 5664 5669 5673 5675 5677 5678 5678 5677 5676 5674 5670 5667 5665 5662 5658 5654 5650 5646 5641 5636 5632 5627 5622 5618 5613 5607 5601
5466 5467 5467 5469 5473 5478 5487 5521 5551 5554 5562 5568 5574 5584 5593 5601 5610 5618 5626 5635 5642 5649 5656 5662 5667 5670 5673 5674 5674 5674 5673 5670 5667 5665 5663 5659 5655 5651 5647 5642 5638 5633 5629 5624 5620 5615 5609 5603 5598